Theta_e
295 295 295 295 294 294 293 293 292 292 291 291 291 290 290 289 289 289 288 288 288 288 288 288 288 288 288 288 288 288 288 288 288 288 287 287 287 286 286 286 286 286 286 286 286 285 285 285 285 285 285 285 285 285 285 285 285 285 285 285 285 285 284 284 283 284 285 285 285 285 285 285 286 286 286 287 288 287 287 286 287 287 287 287 287
295 294 294 294 293 293 292 292 291 291 291 290 290 289 289 288 288 288 288 288 288 288 288 288 288 288 288 288 288 288 288 288 288 288 288 287 287 286 286 286 286 285 285 285 285 285 285 285 285 285 285 285 285 285 285 285 284 285 285 284 285 285 284 284 283 283 285 285 285 285 285 284 285 285 285 285 286 287 287 287 286 286 286 287 287
293 293 293 293 293 292 292 291 291 290 290 289 289 288 288 288 288 288 288 288 288 288 288 288 288 288 288 288 288 288 288 288 288 288 288 287 287 287 286 286 285 285 285 285 284 284 284 284 285 285 285 284 284 284 284 284 284 284 284 284 284 284 284 284 283 283 284 285 285 285 285 284 284 284 284 284 285 286 286 286 286 286 286 285 286
293 292 292 292 292 292 291 291 290 290 289 289 288 288 288 288 288 288 288 288 288 288 288 288 288 288 288 288 287 287 287 287 287 287 287 287 287 287 286 286 285 285 285 284 284 284 284 284 284 284 284 284 284 284 284 284 284 284 284 284 284 284 284 283 283 283 282 284 285 285 284 284 283 283 283 282 283 285 285 285 286 286 286 286 285
292 291 291 291 291 291 290 290 290 289 289 289 288 288 288 288 288 288 288 288 288 288 288 288 288 288 288 288 287 287 287 287 287 287 287 287 287 287 286 286 285 285 284 284 284 284 284 284 284 284 283 283 283 283 284 283 284 284 284 284 283 283 283 283 283 282 282 282 284 284 284 284 282 281 281 280 281 282 283 283 284 285 286 286 285
291 290 289 289 289 289 289 289 289 289 289 288 288 288 288 288 288 288 288 288 288 288 288 288 288 288 288 288 288 288 287 287 287 286 287 287 287 287 286 285 285 284 284 284 284 283 283 283 283 283 283 283 283 283 283 283 283 283 283 283 283 282 282 282 282 281 281 281 282 282 283 283 281 280 280 280 280 280 281 281 282 283 284 285 285
290 289 289 288 288 288 288 289 289 288 288 288 288 288 288 288 288 288 288 288 288 288 288 288 288 288 288 288 288 288 287 287 287 286 286 286 286 286 286 285 284 284 284 283 283 283 283 283 283 283 283 283 283 283 283 283 282 282 282 282 281 281 281 281 280 280 280 280 280 280 280 280 279 278 278 279 279 279 280 281 281 282 282 282 283
290 289 288 288 288 288 288 288 288 288 288 288 288 288 288 288 289 288 288 288 288 288 288 288 288 288 288 288 288 287 287 287 287 286 286 286 286 285 285 284 284 283 283 283 283 283 283 283 283 283 283 283 283 282 282 282 282 282 281 281 280 280 280 280 279 279 279 278 278 278 277 278 278 277 277 277 278 278 279 279 279 279 279 279 281
291 290 289 288 288 288 288 288 288 288 287 287 288 288 288 288 289 289 288 289 288 288 288 288 288 288 288 288 287 287 287 287 287 286 286 286 285 285 284 284 283 283 283 283 283 283 283 283 283 283 283 283 282 282 282 281 281 281 281 280 280 279 279 279 278 278 277 277 277 276 275 276 276 276 276 276 277 277 277 277 277 277 278 278 279
291 290 290 289 288 288 288 288 288 287 287 287 287 288 288 288 289 288 288 288 288 288 288 288 288 288 287 287 287 287 287 286 286 286 285 285 285 284 284 283 283 283 283 283 283 282 282 283 283 282 282 282 282 282 281 281 280 280 280 279 279 278 278 278 277 276 275 275 274 274 274 275 275 275 275 275 275 276 276 276 276 277 277 277 278
292 291 290 289 288 288 288 288 287 287 287 287 287 287 288 288 288 288 288 288 288 288 288 288 288 287 287 287 287 287 287 286 286 285 285 285 284 283 283 282 282 282 282 282 282 282 282 282 282 282 282 282 282 282 281 281 280 280 279 278 278 278 277 277 276 274 273 273 273 273 273 274 274 274 274 275 275 275 275 276 276 276 276 276 277
291 291 291 290 288 288 288 288 287 287 287 287 287 287 288 288 288 288 288 288 288 288 288 287 287 287 287 287 287 287 286 286 285 285 285 284 283 282 282 282 282 282 282 282 282 282 282 282 282 282 282 282 282 281 280 280 279 279 279 278 278 277 277 276 274 273 273 273 273 273 273 273 274 274 274 274 275 275 275 275 275 276 276 276 277
292 292 292 291 289 288 288 288 287 287 287 287 287 287 288 288 288 288 288 288 288 287 287 287 287 287 287 287 287 286 286 286 285 285 284 283 282 281 282 282 282 282 282 282 282 282 282 282 282 282 282 281 281 280 280 279 279 278 278 278 277 277 276 275 274 273 273 273 273 273 273 273 274 274 274 275 275 275 275 276 276 276 276 277 277
293 293 292 291 290 289 289 288 287 287 287 287 287 287 288 288 288 288 288 288 287 287 287 287 287 287 286 286 286 286 286 285 285 284 284 282 281 281 281 281 281 282 282 281 281 281 281 281 281 281 281 280 280 279 279 278 278 278 278 278 277 276 275 274 273 274 274 274 274 274 274 274 274 274 275 275 275 275 276 276 276 276 277 277 277
293 293 292 292 291 290 289 289 288 287 287 287 287 287 287 288 288 288 288 287 287 287 287 287 286 286 286 286 286 286 285 285 284 284 283 282 281 281 281 281 281 281 281 281 281 281 281 281 281 281 280 280 279 279 278 278 278 277 277 277 276 275 274 274 274 275 275 275 275 275 275 275 275 275 276 276 276 276 276 277 277 277 277 277 277
293 293 292 291 291 290 289 289 288 288 287 287 287 287 288 288 288 288 288 287 287 287 287 286 286 286 286 286 286 286 285 285 284 283 282 281 281 281 281 281 281 281 281 281 281 281 281 281 280 280 280 279 279 278 278 278 277 276 275 275 275 274 274 275 275 275 275 275 276 276 276 276 276 276 277 277 277 277 277 277 277 277 277 277 277
293 292 291 291 290 289 289 289 289 288 288 288 288 288 288 288 288 288 287 287 287 286 286 286 286 286 286 286 286 286 285 284 283 282 281 281 281 281 281 281 281 281 281 281 281 281 281 280 280 279 279 279 278 278 278 276 275 274 274 274 274 274 275 276 276 275 275 276 276 277 277 277 277 277 277 277 277 277 277 277 277 277 277 277 277
293 292 291 290 290 290 289 289 289 289 289 289 288 288 288 288 287 287 287 287 287 286 286 286 286 286 286 286 286 285 285 284 282 281 281 281 281 281 281 281 281 281 281 281 281 280 280 279 279 279 279 279 278 278 277 275 274 274 274 274 275 275 276 276 276 276 276 276 276 277 277 277 277 277 276 276 276 276 277 276 276 276 276 276 276
291 291 290 290 289 289 289 289 289 289 289 288 288 288 288 288 287 287 287 286 286 286 286 286 286 286 286 286 285 285 284 283 282 281 281 281 280 281 281 281 281 281 281 280 280 280 279 279 279 279 279 278 278 277 276 274 274 274 275 275 275 276 276 276 276 276 276 276 276 276 276 276 276 276 276 276 276 276 276 276 276 276 276 276 276
290 290 289 289 289 288 288 288 288 288 288 288 288 288 288 287 287 287 286 286 286 286 286 286 286 286 286 285 285 284 284 282 281 281 281 280 280 280 280 280 280 280 280 280 279 279 279 279 279 278 278 277 276 276 275 274 275 275 275 276 276 276 276 276 276 276 276 276 276 276 276 276 276 276 276 276 276 276 276 276 276 276 276 276 276
289 289 289 289 288 288 288 289 288 288 288 288 288 288 287 287 287 286 286 286 286 286 286 286 286 286 285 285 285 284 283 282 281 281 280 280 280 280 280 280 279 279 279 279 279 279 278 278 278 278 277 276 275 275 274 275 276 276 276 276 276 276 276 276 275 275 275 275 275 275 275 275 275 275 275 275 275 275 275 275 275 276 276 276 276
289 289 289 289 289 289 289 289 289 288 288 288 288 288 287 287 287 286 286 286 286 286 286 286 286 286 285 285 284 283 282 281 281 280 280 280 280 279 279 279 279 278 278 278 278 278 278 277 277 276 275 275 274 275 275 276 276 276 276 275 275 275 274 274 274 274 274 274 274 274 274 274 274 274 274 274 275 275 275 275 276 275 275 275 275
289 289 289 289 289 289 289 289 288 288 288 288 288 287 287 287 286 286 286 286 286 286 286 285 285 285 285 285 284 283 281 281 280 280 280 279 279 278 278 278 278 277 277 277 277 277 277 276 275 274 274 274 275 275 275 275 274 274 274 274 274 273 273 273 273 273 273 273 273 273 273 274 274 274 274 275 275 275 276 276 276 276 276 275 275
289 289 289 289 289 289 289 288 288 288 288 288 287 287 287 286 286 286 286 285 285 285 285 285 285 285 284 284 283 282 281 280 280 280 280 279 279 278 278 278 277 277 277 277 276 276 275 274 274 273 274 274 274 274 274 274 274 273 273 273 273 273 273 273 273 272 272 273 273 273 274 274 274 274 275 275 275 276 276 276 276 276 276 275 275
290 289 289 289 289 289 289 288 288 288 288 287 287 287 286 286 286 286 285 285 285 285 285 285 284 284 284 283 282 281 280 280 280 280 279 279 278 278 278 277 277 277 276 276 275 274 274 273 273 273 274 274 274 274 274 274 274 273 273 273 273 273 273 272 272 272 272 272 272 272 273 274 273 273 274 274 275 275 276 276 276 276 276 275 275
290 290 289 289 289 289 288 288 288 288 287 287 287 286 286 286 286 285 285 285 285 285 284 284 284 284 283 282 281 280 280 280 280 279 279 278 278 278 277 277 277 276 275 274 274 273 273 273 273 273 274 274 274 274 274 274 274 273 273 273 273 272 272 271 271 271 271 271 271 272 272 273 273 273 274 274 274 275 276 275 275 275 275 275 275
290 290 289 289 289 288 288 288 288 288 287 287 287 286 286 286 285 285 285 285 284 284 284 284 283 283 282 281 280 280 279 279 279 279 278 278 278 277 277 276 275 274 273 272 272 272 273 273 273 274 274 274 274 274 274 274 273 273 273 273 272 272 271 271 271 270 270 271 271 271 272 272 273 273 273 273 274 275 275 274 274 274 274 274 274
290 289 289 289 288 288 288 288 288 288 287 287 287 286 286 285 285 285 284 284 284 283 283 283 283 282 281 280 280 279 279 279 279 278 278 277 277 276 276 275 274 272 272 271 272 273 274 273 273 274 274 274 274 274 274 274 273 273 273 272 272 271 271 270 270 270 270 270 270 271 271 272 272 273 273 273 274 274 274 273 273 274 274 274 274
289 289 289 288 288 288 288 288 288 288 287 287 287 286 286 285 284 284 284 283 283 283 283 283 282 281 280 279 279 279 279 278 278 278 277 276 276 275 274 273 272 271 271 272 273 273 273 273 273 274 273 274 273 273 273 273 273 273 272 272 271 271 270 270 270 270 270 270 270 270 271 271 271 272 273 273 273 273 273 273 273 273 274 274 275
289 289 289 288 288 288 288 288 288 288 287 287 286 286 285 285 284 284 283 283 283 282 282 282 281 280 279 279 278 278 278 278 278 277 276 275 274 274 273 272 271 272 272 273 273 273 273 273 273 273 273 273 273 273 273 273 273 273 272 272 271 270 270 270 270 269 270 270 270 269 269 268 269 270 270 271 271 272 272 272 272 273 274 274 275
289 289 288 288 288 288 288 288 288 287 287 286 286 285 285 284 284 284 283 283 282 282 281 281 280 279 279 278 278 278 278 277 276 275 275 274 274 273 272 271 272 272 273 273 272 272 272 272 272 272 272 272 272 272 272 272 272 272 272 272 271 271 270 270 270 269 270 270 269 268 268 267 268 268 268 269 269 270 271 271 272 272 273 274 274
289 289 288 288 288 288 288 287 287 287 286 286 285 285 284 284 283 283 283 282 282 281 281 280 279 278 278 278 278 277 277 276 275 275 274 274 273 272 271 272 273 273 272 272 272 272 272 272 272 272 272 272 272 272 272 272 272 271 271 271 271 271 271 271 270 270 269 269 268 267 267 268 268 268 268 268 268 269 270 271 271 272 272 273 274
289 288 287 287 287 287 287 286 286 286 286 285 285 284 284 283 283 282 282 282 281 281 280 279 278 278 278 277 277 277 276 276 275 274 274 273 272 271 271 273 273 272 272 272 272 272 271 272 272 272 272 272 272 272 272 272 271 271 271 271 271 271 271 271 271 270 269 267 267 267 268 268 268 268 268 268 269 269 270 270 271 271 272 272 273
288 287 287 286 286 286 286 285 285 285 285 284 284 283 283 283 282 281 281 280 280 280 280 279 278 278 277 277 276 276 275 275 274 274 274 272 271 271 272 273 272 272 271 271 271 271 271 272 272 272 272 272 271 272 272 271 271 271 271 271 271 271 272 272 271 270 269 268 268 268 268 268 268 268 268 269 269 269 269 270 270 270 271 271 272
287 287 286 285 285 285 285 284 284 283 283 283 283 283 282 281 281 280 280 279 279 279 279 278 277 277 277 276 276 275 275 274 274 274 273 271 271 272 272 272 272 271 271 271 271 271 271 271 272 272 271 271 271 271 271 271 271 271 270 270 271 271 271 272 271 270 269 268 269 268 268 268 268 268 268 268 269 269 269 270 270 270 270 271 272
286 285 285 284 284 284 284 283 283 282 282 282 282 282 281 280 280 279 279 279 278 278 277 277 276 276 276 276 275 275 274 274 274 273 272 272 272 272 272 271 271 271 271 271 271 271 271 271 271 271 271 271 271 271 271 270 270 270 270 270 270 270 271 271 271 270 269 269 268 268 267 268 268 268 268 269 269 269 269 270 270 270 270 270 271
285 284 283 283 283 283 283 282 282 282 282 282 281 281 280 279 279 278 278 277 277 277 277 276 276 275 275 275 274 274 274 274 273 273 272 272 272 271 271 271 271 271 271 271 271 271 271 271 271 271 271 271 270 270 270 270 270 270 270 270 270 270 270 270 270 270 269 269 268 267 267 268 268 268 268 268 269 269 269 270 270 270 270 270 271
283 282 282 282 282 282 282 281 281 281 281 281 280 279 279 278 278 277 277 276 276 276 276 275 275 275 274 273 273 273 273 273 273 273 272 271 271 271 271 271 271 271 271 271 271 271 271 271 271 270 270 270 270 270 270 270 270 270 270 270 270 270 270 270 270 270 270 269 268 268 268 267 268 268 268 268 269 269 269 270 270 270 270 271 271
282 282 282 282 281 281 281 280 280 280 280 279 279 278 278 277 276 276 275 275 275 275 275 275 274 274 273 272 272 272 272 272 273 273 272 271 270 270 270 270 270 271 271 270 270 270 270 270 270 270 270 270 270 270 270 270 270 270 270 270 270 270 270 270 270 270 270 270 269 269 268 268 268 268 269 269 269 269 270 270 270 270 271 271 271
281 281 281 281 280 280 280 279 279 279 278 278 277 277 276 276 275 274 274 274 274 274 274 273 273 273 272 272 272 272 272 272 272 272 272 270 270 270 270 270 270 270 270 270 270 270 270 270 270 270 270 270 270 270 270 270 269 270 270 270 270 270 270 270 270 270 270 270 270 270 269 269 268 269 269 269 270 270 270 270 271 271 271 271 271
280 280 280 280 279 279 279 279 278 277 277 276 276 275 275 274 274 273 273 273 273 273 273 272 272 272 272 271 271 271 271 271 272 272 271 270 270 270 270 270 270 270 270 270 270 270 270 270 270 270 270 270 270 270 270 270 269 269 269 269 269 269 269 269 269 269 270 270 270 270 270 269 269 269 269 270 270 270 270 271 271 271 271 271 271
280 279 279 279 278 278 278 278 277 276 276 275 274 274 273 273 272 272 272 272 272 272 271 271 271 271 271 271 271 271 271 271 271 271 271 270 270 269 269 269 269 269 269 269 269 269 270 270 270 270 270 270 270 270 270 269 269 269 269 269 269 269 269 269 269 269 269 269 269 270 270 270 269 269 270 270 270 270 270 271 271 271 271 271 272
278 278 278 277 277 276 276 275 275 274 274 274 273 273 272 272 271 271 271 271 271 271 271 271 270 270 270 270 270 270 270 271 271 270 270 270 269 269 269 269 269 269 269 269 269 269 269 269 269 270 270 270 269 269 269 269 269 269 269 269 269 269 269 269 269 269 269 269 269 270 270 270 269 270 270 270 270 271 271 271 271 271 271 271 272
277 276 276 275 275 274 274 273 273 273 272 272 272 271 271 270 270 270 270 270 270 269 269 269 269 269 269 269 269 270 270 270 270 269 269 269 269 269 269 269 269 269 269 269 268 269 269 269 269 269 269 269 269 269 269 269 269 269 269 269 269 269 269 269 269 269 269 269 269 269 270 270 269 270 270 270 270 271 271 271 271 271 271 271 271
275 274 274 273 273 273 272 272 271 271 271 270 270 270 269 269 269 268 268 268 268 268 268 268 268 269 269 269 269 269 269 269 269 269 269 269 268 268 268 268 268 268 269 268 268 268 268 268 269 269 269 269 269 269 269 269 269 269 269 269 269 269 269 269 268 268 268 268 268 269 269 269 269 269 270 270 270 271 271 271 271 271 271 271 271
273 273 272 272 271 271 271 270 270 269 269 268 268 268 267 267 267 267 267 267 267 267 267 267 268 268 268 268 269 269 269 268 268 268 268 268 268 268 268 268 268 268 268 268 268 268 268 268 268 269 269 269 269 269 269 269 269 269 269 269 269 269 269 268 268 268 268 268 268 269 269 268 268 269 270 270 270 270 271 271 271 271 271 271 271
272 271 271 271 270 269 269 268 268 267 267 267 266 266 266 266 266 266 266 266 266 266 266 267 267 267 267 268 268 268 268 268 268 268 268 268 268 268 268 268 268 268 268 268 268 268 268 268 269 269 269 269 269 269 269 269 269 269 268 268 268 268 268 268 268 268 268 267 268 268 268 267 268 269 269 270 270 270 270 271 271 271 271 271 271
271 270 270 269 269 268 267 267 266 266 266 265 265 265 264 264 264 265 265 265 265 265 265 266 266 266 267 267 267 268 268 268 268 268 268 268 268 268 268 268 268 268 268 268 268 268 268 268 268 268 268 268 268 268 268 268 268 268 268 268 268 268 267 268 268 268 267 267 268 268 267 267 268 268 269 269 270 270 270 270 271 271 271 271 271
270 269 269 268 267 267 266 266 265 265 264 264 264 264 263 263 264 264 264 264 264 264 265 265 265 266 266 267 267 267 267 267 267 267 268 268 268 268 268 268 268 268 268 268 268 268 268 268 268 268 268 268 268 268 268 268 268 268 268 268 268 268 267 267 267 267 267 267 267 267 266 267 268 268 268 269 269 270 270 270 270 270 271 271 271
269 268 268 267 266 266 265 265 264 264 263 263 263 263 263 263 263 264 264 264 264 264 264 265 265 265 266 266 266 267 267 267 267 267 267 267 267 267 267 268 268 268 268 268 268 268 268 268 268 268 268 268 268 268 268 268 268 268 268 268 268 268 267 267 267 267 267 267 267 266 267 267 268 268 268 269 269 269 270 270 270 270 271 271 271
268 267 267 266 265 265 265 264 264 264 263 263 263 263 263 263 263 263 264 264 264 264 264 264 265 265 265 265 266 266 266 266 266 267 267 267 267 267 267 267 267 268 268 268 268 268 268 268 268 268 268 268 267 267 267 267 267 267 267 267 267 267 267 267 267 267 267 267 266 266 267 267 268 268 268 268 269 269 269 270 270 270 270 271 271
Wind_Speed
16 16 15 14 14 13 12 11 11 11 11 11 11 12 11 11 10 10 10 9 9 9 9 9 10 11 12 12 13 14 15 16 17 17 18 19 19 20 21 21 22 22 23 23 24 24 25 25 26 27 28 29 30 30 32 32 32 33 33 34 36 36 37 37 39 47 52 50 52 54 53 52 54 53 52 52 53 54 56 58 58 57 55 53 53
17 17 16 16 15 14 13 12 12 12 12 13 13 12 11 11 10 10 8 7 7 7 7 8 10 11 12 13 14 15 16 17 18 19 19 20 20 21 21 21 22 22 23 23 24 25 26 26 27 28 29 30 31 32 33 33 33 34 34 35 37 37 38 39 41 45 51 53 52 54 54 52 54 55 53 52 53 52 52 54 56 58 58 57 56
18 18 17 17 16 15 15 14 14 14 14 14 13 12 12 11 10 8 6 5 5 6 7 9 11 12 14 15 17 18 19 19 20 20 21 21 21 22 22 22 23 23 24 24 25 25 26 27 28 29 30 31 32 32 33 33 33 34 35 35 37 38 39 40 41 43 49 53 54 54 55 53 52 54 53 51 53 53 51 50 51 53 56 57 56
20 19 18 18 18 17 17 16 15 15 15 14 14 13 12 11 9 7 6 5 6 7 9 11 12 14 15 17 19 20 21 22 23 23 23 23 24 24 24 25 25 25 26 26 26 27 27 28 29 30 31 32 32 33 33 34 34 35 36 37 38 39 40 41 42 42 45 51 54 54 55 54 51 51 50 48 50 52 52 49 48 48 51 53 53
21 20 20 20 20 19 18 17 16 16 16 16 15 14 13 11 9 8 7 7 8 9 10 12 14 16 17 19 21 23 24 25 26 26 26 26 26 26 26 27 27 27 28 28 28 29 29 30 31 31 32 32 33 33 33 34 35 36 37 38 39 40 41 42 42 41 42 47 52 53 54 54 50 46 44 41 42 48 50 48 47 47 46 47 49
22 22 22 21 21 20 19 18 17 17 17 17 16 15 13 11 10 8 8 8 9 11 12 14 16 18 19 21 23 25 27 28 28 28 28 28 28 28 28 28 28 28 29 29 29 30 30 31 32 32 32 33 33 33 34 35 35 37 37 38 39 40 41 42 41 41 41 43 48 50 51 52 48 43 39 34 34 39 43 42 42 42 41 42 45
24 24 23 22 21 20 19 18 18 18 19 18 17 15 14 12 10 9 9 10 11 12 14 16 17 19 21 22 24 26 28 29 30 30 29 28 28 28 28 28 28 29 29 29 30 30 31 31 32 33 33 33 33 34 35 35 36 37 37 38 38 38 39 40 39 40 40 42 44 45 46 47 44 41 38 33 29 28 29 30 32 35 36 38 42
25 25 24 23 23 22 20 19 19 20 20 19 18 16 14 13 11 11 11 11 12 13 15 17 18 20 21 23 24 26 28 29 30 31 30 30 29 29 29 29 29 29 29 29 30 31 31 32 32 33 33 33 33 33 34 35 36 37 36 36 37 37 38 39 39 39 40 40 41 41 41 43 42 38 33 27 26 25 23 24 30 34 36 39 42
26 26 26 25 24 23 22 21 22 22 21 20 19 17 15 14 13 13 13 13 14 15 16 17 19 20 21 23 25 26 28 29 31 32 31 30 30 29 29 29 29 29 29 30 30 31 31 32 33 33 33 33 33 33 33 33 34 35 36 36 36 36 37 37 37 38 38 38 38 36 35 35 34 31 27 23 24 27 26 25 29 32 33 36 42
28 28 27 26 25 24 24 24 24 23 22 22 20 18 16 16 15 15 15 15 16 16 18 19 20 21 22 23 25 27 28 29 31 32 31 30 30 30 30 30 29 29 29 30 30 30 31 32 33 33 34 34 34 34 33 33 33 34 35 34 34 35 35 36 35 34 33 34 34 32 29 29 27 25 26 26 25 26 26 24 27 29 28 31 40
29 28 27 25 25 25 25 26 25 25 24 23 22 19 18 18 18 18 18 18 18 19 19 20 21 22 23 24 27 27 28 30 31 32 31 29 29 30 30 30 29 29 29 29 30 30 31 32 33 34 34 34 35 35 34 33 33 33 33 33 32 31 31 32 32 30 28 30 33 32 28 29 28 25 25 27 25 24 24 23 25 28 27 27 34
29 27 25 25 26 26 27 27 27 26 25 24 23 20 20 20 21 21 20 20 21 21 21 22 22 23 24 26 27 28 29 30 31 31 30 29 29 30 30 30 29 29 29 29 30 30 31 32 33 34 35 35 35 35 34 34 33 33 33 32 32 30 29 28 27 27 27 28 32 32 29 29 30 26 24 24 23 21 22 23 24 27 27 26 30
28 26 25 25 26 27 27 27 27 27 26 25 24 22 22 23 23 23 22 23 23 23 23 24 24 24 25 27 28 29 29 30 31 31 30 29 29 30 30 30 30 30 29 29 30 31 32 33 34 35 35 35 36 35 34 33 33 33 33 33 33 32 29 27 25 25 26 27 31 33 30 28 28 25 23 24 26 26 26 27 27 29 32 31 32
27 26 25 25 26 27 27 28 28 28 27 26 25 25 25 25 25 25 25 26 26 25 25 25 25 25 26 28 30 30 29 31 31 31 30 30 30 30 30 30 30 30 30 30 31 31 32 33 34 35 35 35 35 34 33 32 32 33 33 33 33 32 31 30 27 24 24 26 30 33 31 28 28 27 27 29 32 34 34 36 36 37 39 38 35
26 26 25 26 26 27 27 28 28 28 28 28 27 27 27 28 28 28 29 29 28 27 27 26 26 27 28 29 31 30 30 31 31 30 30 30 30 30 30 30 30 30 31 31 32 32 33 34 35 35 36 35 34 33 32 31 31 32 33 33 34 34 33 32 28 26 26 27 31 34 34 33 33 33 34 34 36 38 39 41 42 42 42 40 36
26 25 25 26 26 26 27 27 27 28 28 29 29 29 30 30 31 31 31 31 30 28 28 27 27 28 29 30 31 31 31 31 31 30 30 30 31 31 31 31 31 32 32 33 33 34 35 35 35 36 36 35 33 31 30 30 29 30 32 33 34 34 34 33 32 31 31 32 34 35 36 36 37 37 37 37 38 39 39 41 42 40 39 37 34
25 25 25 25 24 24 24 25 26 27 28 29 30 31 32 33 33 33 32 32 30 29 28 28 28 29 30 31 32 32 32 31 30 30 30 30 31 31 31 32 32 33 34 34 35 36 36 36 35 35 35 34 32 31 29 27 27 29 31 32 33 34 35 36 37 35 35 36 37 35 35 36 37 37 37 36 36 36 37 39 37 34 34 34 34
23 23 22 21 21 22 22 23 25 26 27 29 30 31 32 33 33 33 32 31 30 29 28 28 29 30 31 31 32 33 32 31 30 30 30 30 30 31 32 32 33 34 34 35 36 36 36 36 35 34 35 34 32 31 28 25 26 29 31 32 34 37 38 40 41 41 40 40 39 37 36 36 36 37 37 36 35 33 34 37 37 33 33 34 34
18 18 19 19 19 20 21 22 23 24 24 25 26 28 29 29 30 30 30 30 29 29 29 29 30 31 31 31 32 33 32 31 30 30 29 29 30 30 31 32 33 34 35 35 36 36 36 36 35 34 34 33 32 30 27 25 27 29 31 34 39 42 42 41 41 42 41 40 40 40 38 36 35 36 36 34 33 33 34 39 40 35 33 34 34
17 18 19 19 20 19 19 19 19 19 20 22 23 24 25 26 27 28 28 29 29 29 29 30 31 31 31 32 32 32 31 30 30 30 29 29 29 29 30 32 32 33 34 34 36 36 36 36 35 34 33 32 31 30 27 26 28 31 34 37 40 41 40 39 39 40 40 41 40 39 38 36 32 31 31 32 33 35 35 37 35 32 33 36 35
17 18 19 19 19 18 17 17 17 17 19 21 23 24 25 25 26 26 27 28 29 30 30 31 31 32 32 32 32 31 31 30 30 29 29 28 28 28 29 30 31 32 33 34 35 36 35 35 35 34 33 32 31 29 28 29 30 33 35 34 33 35 37 40 42 40 37 36 35 33 34 32 29 31 35 37 38 37 36 34 32 30 32 34 35
17 18 18 18 18 18 18 18 18 19 20 22 24 25 25 25 26 26 28 29 30 31 31 31 32 33 33 33 32 31 30 30 30 29 29 28 28 27 28 29 29 30 32 33 34 34 33 33 33 33 32 31 30 29 30 30 31 33 34 33 34 37 39 39 39 36 35 36 36 38 39 36 33 36 39 38 36 36 35 35 33 32 31 32 33
18 18 19 19 20 20 20 20 20 21 22 23 25 26 26 26 27 28 29 30 31 32 31 31 33 34 34 33 32 30 30 30 30 29 29 28 27 26 26 27 27 28 29 31 31 31 31 32 32 32 30 29 29 30 31 33 35 37 38 37 38 39 38 37 37 37 38 39 39 40 39 36 33 33 33 32 33 33 33 34 33 32 32 31 31
20 20 21 22 22 22 22 22 22 22 23 25 26 27 27 27 28 29 30 31 32 32 32 32 33 33 33 33 31 30 30 30 30 29 28 28 27 26 26 26 26 26 26 27 28 29 30 30 28 28 28 29 31 33 35 37 37 37 37 36 35 35 35 35 35 34 35 35 34 34 33 32 30 30 30 31 32 32 33 33 32 31 31 31 31
23 24 24 25 25 25 23 22 22 23 24 26 27 28 28 28 29 30 31 31 32 32 32 33 33 33 33 32 31 31 31 30 30 29 28 28 27 27 27 26 25 24 24 25 26 26 26 26 26 27 30 32 34 35 36 36 35 33 32 31 31 31 30 30 29 29 30 30 30 31 31 31 30 30 31 32 33 33 33 32 31 30 31 32 33
27 27 27 27 27 26 24 23 23 22 23 25 26 28 29 29 30 31 31 31 32 32 32 32 32 32 32 32 32 32 31 31 31 30 29 28 28 27 27 26 25 24 23 23 23 23 24 26 28 30 31 32 33 33 34 34 32 31 30 28 28 27 27 27 27 27 27 27 28 29 29 30 30 31 31 31 31 32 31 30 30 31 31 33 36
31 31 30 30 29 28 25 24 22 21 22 23 25 27 29 30 31 32 31 31 32 32 32 32 31 32 32 32 32 32 32 31 31 30 29 29 29 28 27 26 25 23 20 20 23 26 28 29 29 29 29 30 30 29 30 30 29 28 27 26 26 25 25 26 26 25 25 25 26 27 27 28 28 29 29 29 29 29 29 28 29 31 32 33 35
35 35 33 32 31 29 26 24 22 21 22 23 25 27 29 30 31 31 30 31 31 32 32 31 31 31 32 32 33 33 32 32 30 29 29 28 28 27 26 25 22 20 20 24 27 29 29 27 27 27 27 28 28 27 26 26 26 25 25 25 24 24 23 24 25 25 25 25 25 26 25 25 26 25 26 26 26 27 27 27 27 28 29 30 33
38 38 36 34 33 30 27 25 24 23 23 24 25 28 29 30 31 31 30 31 31 32 32 32 31 31 31 32 32 32 32 31 29 28 28 26 25 24 23 20 18 18 24 28 28 27 26 25 25 26 26 26 26 25 24 24 23 23 23 24 24 24 24 24 24 24 25 25 26 26 25 24 24 24 24 25 26 26 26 25 26 27 27 28 31
41 41 39 37 35 32 30 28 26 25 25 26 27 29 29 30 31 31 31 31 31 31 32 31 30 30 31 32 32 31 32 31 29 28 27 25 24 22 19 17 18 22 26 27 25 24 23 23 23 24 24 24 24 23 23 23 23 23 23 23 25 25 25 24 24 24 25 24 24 25 25 25 26 26 26 27 27 26 26 25 26 27 28 29 31
41 42 41 39 37 34 32 29 27 26 27 28 29 30 30 31 31 31 31 32 31 31 31 31 30 30 31 32 32 31 31 29 28 27 26 25 23 20 17 18 22 24 24 23 22 21 21 21 22 22 22 22 22 22 22 22 23 24 24 24 25 26 26 26 25 24 24 23 24 24 24 25 26 26 26 27 27 27 26 25 26 27 28 29 30
39 41 40 39 38 35 33 30 29 28 29 29 30 30 30 31 31 32 32 32 32 31 30 30 30 30 30 31 31 31 30 29 27 27 26 24 21 18 18 21 23 22 21 20 20 19 19 20 21 20 20 20 21 21 21 21 22 24 25 26 26 26 25 25 24 24 24 24 23 23 24 25 26 26 26 27 27 27 26 26 26 27 27 28 29
37 39 39 39 38 36 33 31 30 30 29 29 30 30 31 32 32 32 32 31 31 31 30 30 30 31 31 30 30 29 28 27 26 26 26 23 19 18 20 22 21 19 19 19 18 18 18 19 19 19 19 19 19 20 20 21 21 23 24 25 26 26 25 24 24 24 25 24 23 24 26 27 28 28 28 27 27 26 27 27 28 28 27 27 28
36 37 38 38 38 36 33 31 31 30 29 29 30 30 32 33 33 32 31 29 30 31 31 30 30 31 31 30 29 28 27 26 25 26 25 22 20 21 21 20 18 18 18 18 17 17 18 18 18 18 18 18 18 19 20 20 21 22 23 24 26 26 26 26 25 26 26 25 25 26 28 29 30 29 30 29 28 29 29 30 30 28 27 27 28
34 35 37 38 37 34 32 31 30 29 29 29 30 31 33 33 33 32 31 30 29 29 30 30 31 31 30 29 28 26 25 25 25 24 23 22 23 21 19 17 17 18 18 17 16 16 16 16 16 16 17 17 18 19 19 20 21 22 23 24 25 26 27 27 26 26 26 25 26 28 29 30 31 31 30 30 30 30 31 30 30 29 27 27 28
31 32 34 35 34 32 30 29 28 28 29 30 31 33 33 33 33 32 32 31 30 29 29 29 29 29 29 28 27 25 24 24 24 23 23 25 24 19 17 16 17 17 17 16 16 15 14 14 14 15 15 17 18 19 19 20 21 22 22 23 25 26 27 27 26 25 25 25 26 27 28 29 32 32 32 31 31 30 30 30 30 29 28 27 28
28 29 30 31 30 29 29 28 29 29 31 32 33 33 33 33 33 32 32 32 31 31 30 28 27 26 25 25 26 26 24 23 23 23 24 25 22 17 16 17 17 17 17 16 16 15 14 13 14 14 15 16 17 19 20 20 21 22 22 23 24 25 26 26 26 26 26 26 26 26 27 28 31 33 33 32 32 31 31 30 30 30 30 29 29
24 26 27 27 27 28 28 29 29 30 32 33 33 33 32 32 32 32 32 32 32 31 30 29 27 24 22 22 25 26 24 22 22 23 24 23 19 17 17 18 17 17 17 16 16 16 15 14 14 14 15 16 17 19 20 21 21 22 23 24 25 25 25 26 26 27 27 27 27 27 27 28 31 33 33 33 33 32 31 31 30 31 31 30 30
22 23 25 26 27 28 28 29 30 31 32 32 32 32 32 32 32 32 32 32 32 31 30 28 27 24 21 21 23 25 24 21 21 22 23 21 18 17 18 18 17 17 17 16 16 16 15 15 15 15 16 17 18 19 20 21 21 22 23 24 25 26 26 27 27 28 28 28 28 28 28 29 31 34 34 33 33 32 31 31 30 30 31 31 31
22 23 25 26 27 28 28 29 30 31 31 31 31 31 32 32 32 32 32 31 31 30 29 27 25 22 21 22 23 24 23 22 21 22 21 20 18 18 18 18 18 17 17 17 17 17 17 17 17 16 17 18 19 19 20 21 21 22 23 24 26 27 27 27 28 28 29 29 29 29 29 30 32 34 34 33 32 31 31 30 30 29 30 30 30
22 23 24 25 26 28 29 30 31 31 30 31 31 32 33 33 32 32 31 31 30 29 28 26 24 21 21 22 23 23 24 23 21 21 20 19 19 18 18 17 17 17 17 18 18 18 18 18 18 18 18 19 20 21 21 22 22 23 24 24 25 26 27 28 28 29 29 29 30 29 28 30 32 33 34 33 32 31 31 30 29 29 29 29 29
23 24 24 25 26 28 29 30 30 30 31 31 32 32 32 32 32 31 31 30 29 28 27 25 23 20 21 22 23 24 25 24 21 20 19 20 19 18 17 17 18 18 18 18 19 19 20 19 19 19 20 20 21 22 23 23 24 24 25 26 26 27 27 28 28 29 29 29 30 29 28 29 31 32 33 33 32 32 31 30 29 28 28 28 28
22 23 24 25 26 27 28 29 30 31 31 31 32 32 32 32 31 31 30 29 28 27 26 24 22 21 21 22 23 24 25 23 21 20 20 20 20 18 17 18 18 19 19 20 20 21 21 21 20 21 21 22 23 24 24 24 25 25 26 27 27 27 28 28 28 29 29 30 30 30 28 28 30 32 32 33 33 33 32 30 28 27 27 27 26
21 23 23 24 25 27 28 29 30 31 31 31 31 31 30 30 30 30 29 28 27 26 25 24 22 21 21 22 23 24 24 22 22 21 21 21 20 19 19 19 19 20 20 20 21 22 23 23 22 22 23 23 24 25 25 25 26 26 27 28 28 28 29 28 28 28 29 29 30 30 28 28 29 31 32 32 32 32 32 30 28 27 26 26 25
21 22 23 24 25 26 27 28 29 30 30 30 30 30 29 29 29 28 28 27 26 25 24 23 22 21 21 21 22 23 23 22 22 22 22 21 21 20 20 20 20 21 21 21 22 22 23 24 24 25 25 25 26 26 27 27 26 27 27 28 29 29 29 29 29 28 28 28 29 29 28 27 29 30 31 31 31 31 31 29 27 26 26 25 24
21 21 22 24 24 25 26 27 28 28 29 29 29 29 28 28 28 27 26 26 25 24 24 23 22 22 21 21 22 22 21 22 22 23 22 22 21 21 21 21 22 22 22 23 23 23 24 25 26 27 27 27 28 28 28 28 28 28 28 28 29 29 28 28 28 27 26 26 27 27 27 27 28 29 29 29 30 30 29 28 26 25 25 24 24
21 21 22 23 24 24 25 25 26 26 27 27 27 27 27 26 26 26 25 25 24 24 23 22 22 22 21 21 21 21 21 21 22 22 22 22 21 21 22 22 23 23 24 24 24 25 26 26 27 28 29 30 30 29 29 29 29 29 29 28 28 28 27 27 27 26 25 25 25 25 25 27 28 28 28 28 28 28 28 27 26 25 25 24 24
19 19 20 21 22 22 23 23 24 24 24 24 25 24 24 24 24 24 23 23 23 23 23 22 22 21 21 20 20 20 20 21 21 21 21 21 21 21 22 23 23 24 25 24 25 25 26 27 28 29 30 30 30 30 29 29 28 28 28 27 27 26 25 25 25 24 24 24 23 22 23 25 26 26 27 26 26 26 26 25 25 25 25 24 23
15 15 16 17 18 19 20 21 21 22 22 22 22 22 21 22 22 22 21 21 21 21 21 21 20 20 20 19 19 20 20 20 20 21 20 20 20 21 22 23 23 24 25 25 25 25 26 27 27 28 29 30 30 29 29 28 28 27 27 26 26 24 23 23 23 23 22 22 22 21 22 23 23 24 25 25 25 25 24 24 24 24 24 23 23
12 12 12 13 14 15 16 17 18 18 18 19 19 19 19 20 20 20 20 20 20 19 19 19 19 19 19 19 19 19 20 20 20 20 20 20 20 21 22 22 23 24 24 24 24 24 25 25 26 27 28 29 29 29 29 28 28 27 27 26 25 24 23 22 21 20 20 20 20 20 21 22 22 22 23 24 24 24 24 23 23 23 23 22 21
11 10 11 11 11 12 13 14 15 16 16 17 17 18 18 18 18 18 18 19 18 18 18 18 19 19 19 19 19 19 20 20 20 20 20 20 20 21 21 22 22 23 23 24 24 23 24 25 26 27 27 28 27 27 27 27 27 27 26 25 24 23 22 21 20 19 19 19 19 19 20 20 20 21 22 23 23 23 23 23 22 22 22 21 20
Wind_Direction
205 207 209 210 213 216 218 222 224 228 233 237 240 242 243 245 247 250 254 259 267 275 286 296 302 306 309 308 308 307 306 304 302 300 299 298 297 297 297 297 298 298 299 300 301 302 304 305 306 307 308 308 309 309 310 310 310 310 310 310 311 311 313 312 309 308 308 309 310 310 311 310 308 307 306 303 302 304 305 306 305 304 301 298 296
210 212 214 216 218 220 223 227 229 232 235 237 239 240 241 243 244 247 252 258 271 288 301 310 316 317 318 317 316 314 312 310 307 305 304 302 301 300 299 300 300 301 302 303 304 305 306 307 308 309 309 309 310 311 311 311 310 310 310 310 310 310 311 311 310 308 307 307 308 308 309 310 308 308 307 305 302 301 300 301 302 303 302 300 298
215 217 219 220 223 225 227 231 233 235 237 236 237 238 238 240 240 242 248 260 281 303 316 324 327 328 328 326 324 321 318 315 312 309 308 306 305 304 304 305 305 306 307 308 308 308 308 309 310 311 311 311 312 312 312 312 311 310 310 309 309 309 309 309 309 308 307 307 307 308 309 309 307 307 306 305 304 302 299 297 296 297 299 301 301
219 221 223 225 226 228 229 231 233 235 236 235 236 236 235 235 234 238 250 269 293 311 322 328 330 332 333 332 331 330 326 321 318 314 313 311 310 309 309 309 310 312 312 312 312 311 311 312 313 313 313 313 313 313 313 312 312 311 310 310 310 309 309 309 309 308 307 306 307 308 308 307 306 305 305 306 305 303 301 299 296 293 293 296 300
223 224 226 227 229 229 229 231 232 234 234 234 235 233 230 229 232 243 259 278 299 313 322 326 328 329 331 333 334 334 331 328 323 320 317 315 313 312 312 313 313 314 314 314 314 314 315 315 315 315 315 314 314 314 313 313 312 312 312 312 312 311 310 310 309 307 305 304 305 306 306 305 304 304 305 306 306 304 303 303 301 297 292 291 295
226 227 227 228 229 230 230 231 233 234 234 234 232 227 226 229 237 252 269 286 302 311 317 321 324 326 327 329 331 332 333 331 327 323 319 315 314 312 312 313 314 314 315 315 315 316 316 316 316 317 316 316 316 316 316 315 315 315 316 315 314 313 311 310 308 305 302 301 302 302 302 302 301 302 303 304 305 304 305 307 306 304 300 295 293
229 229 230 230 232 233 234 235 235 236 235 231 227 224 226 234 244 258 274 289 300 308 313 317 320 321 322 323 325 328 330 330 328 325 320 316 314 312 312 313 313 314 315 315 315 315 316 317 317 317 317 317 317 318 318 318 318 318 317 316 314 312 310 308 305 302 299 298 298 298 298 298 298 299 301 304 304 302 305 308 307 303 301 299 295
233 233 233 233 235 236 236 237 237 237 234 228 225 226 232 240 251 262 274 285 295 303 308 311 313 314 316 317 319 322 326 327 327 324 320 316 313 312 313 313 314 315 315 315 315 316 316 317 317 316 316 317 318 319 320 320 319 318 316 315 312 310 308 305 302 300 298 298 297 297 297 298 298 300 302 305 304 300 301 303 301 298 298 298 296
237 237 236 236 237 238 238 239 238 236 232 229 229 232 238 246 255 264 272 281 290 296 301 304 306 307 310 312 315 319 323 325 325 323 319 315 313 312 313 313 314 315 314 314 315 316 317 316 316 316 316 316 318 318 319 320 318 316 314 313 311 309 306 303 301 299 298 298 297 298 298 298 300 302 304 306 303 301 302 301 298 298 299 299 297
238 238 238 238 239 239 239 239 238 236 233 233 235 239 244 251 258 264 271 278 285 291 294 297 299 303 306 310 313 317 321 322 323 321 317 313 311 311 311 312 313 313 312 314 315 315 316 315 315 315 315 316 316 317 318 319 316 314 313 311 309 307 304 301 298 297 297 297 296 296 296 295 296 299 301 303 302 300 302 302 298 299 302 302 300
237 238 240 241 240 239 240 240 239 238 237 238 241 245 250 255 260 265 270 276 282 287 290 292 296 300 304 308 312 316 319 320 320 318 314 311 310 310 310 310 311 311 311 313 314 315 315 314 314 314 315 315 315 317 319 318 315 313 311 309 306 303 300 297 295 294 293 292 292 292 291 291 294 296 298 302 302 298 299 298 296 299 301 300 300
237 240 243 243 241 240 241 241 241 241 241 243 246 250 255 258 262 266 271 276 281 284 286 289 294 298 303 308 311 314 317 318 318 316 311 309 309 308 308 309 309 309 311 312 314 314 314 314 314 314 314 315 316 318 320 317 315 312 309 307 306 302 298 295 294 295 295 293 292 292 289 291 295 296 297 302 301 296 294 293 292 295 296 295 296
238 241 244 244 242 241 242 243 243 244 245 249 252 255 259 262 265 269 273 277 279 281 284 287 292 297 302 306 309 312 315 315 315 313 309 308 308 307 307 307 307 308 310 312 314 314 313 313 313 313 315 316 318 320 320 317 314 311 308 307 305 304 304 304 305 304 300 294 291 291 290 290 291 289 294 302 302 296 294 293 291 291 292 293 293
239 242 244 244 243 243 244 244 245 247 250 253 257 260 264 267 270 273 274 276 277 279 282 285 291 297 302 305 308 311 313 313 312 309 307 306 307 306 306 306 306 308 311 312 313 313 312 313 313 314 316 318 320 321 320 316 312 309 307 306 306 308 310 310 310 308 302 295 291 293 294 290 286 287 293 300 300 297 297 297 297 296 294 293 292
239 241 243 244 244 244 245 246 247 250 253 257 261 265 268 271 272 274 274 274 275 277 280 284 290 296 301 304 307 309 311 311 309 307 305 307 307 306 306 306 307 309 310 312 312 312 312 313 314 316 317 318 320 320 318 315 311 309 309 309 310 311 310 308 310 310 306 301 297 297 298 296 295 297 299 299 298 298 299 298 299 299 296 292 290
236 239 241 243 243 244 246 248 251 253 256 260 264 267 270 271 272 273 272 272 273 275 279 283 289 295 300 303 305 308 309 309 307 305 305 307 307 306 307 307 308 309 310 311 312 311 312 313 315 316 316 317 319 319 318 317 314 311 310 309 309 307 306 309 313 311 306 304 303 300 298 298 299 299 298 297 295 295 296 294 294 294 292 290 290
231 235 238 239 240 243 247 251 255 259 261 264 267 269 270 270 270 271 270 270 272 274 277 282 288 294 299 302 304 306 307 306 304 304 305 307 306 306 307 307 308 309 310 311 310 311 312 313 314 315 315 316 318 318 319 320 314 307 304 303 303 304 306 311 314 308 301 301 302 299 294 293 293 292 291 289 287 288 288 287 288 290 289 287 287
231 232 235 238 241 247 251 255 259 261 263 265 267 268 269 268 268 268 268 268 269 271 275 281 288 294 298 301 303 305 305 303 302 303 306 306 306 305 306 307 308 309 309 309 309 310 311 312 313 313 314 317 318 319 321 319 307 301 301 303 304 305 306 309 309 305 303 303 303 300 297 294 292 290 288 283 280 281 281 282 285 286 284 282 284
232 234 239 243 247 250 252 254 257 259 261 263 264 264 264 264 265 265 265 266 267 270 275 282 288 293 297 300 302 303 302 301 301 303 304 304 303 304 305 306 307 308 308 308 308 309 309 310 312 313 315 318 319 320 321 313 300 298 302 303 301 301 304 306 305 305 306 305 302 302 301 297 292 291 289 285 282 279 280 283 283 280 278 277 279
238 242 245 245 246 248 249 252 257 262 265 265 263 262 262 262 262 263 263 265 267 270 277 283 288 294 297 299 301 301 299 299 300 302 302 301 302 303 304 306 307 307 307 307 307 308 309 311 313 314 316 318 320 321 317 305 297 297 300 298 297 299 303 304 301 300 300 299 297 297 296 294 290 288 285 284 285 284 283 283 279 271 271 274 274
244 243 242 241 242 245 247 251 258 263 267 268 266 265 264 263 263 263 263 265 268 272 278 284 289 294 296 298 299 299 297 297 298 299 299 300 301 303 305 306 306 306 306 306 307 309 310 312 312 314 317 321 322 317 308 302 300 298 296 295 294 295 297 297 297 297 296 294 293 291 290 289 286 284 285 288 290 289 286 284 277 269 267 270 270
243 240 240 242 245 248 249 253 258 262 266 268 267 267 265 264 264 263 264 267 270 274 280 285 290 293 295 296 297 296 294 295 296 297 298 300 302 304 305 306 306 306 305 306 307 308 309 310 311 315 320 321 317 310 303 299 296 291 290 292 292 293 295 296 296 295 293 291 290 288 289 289 287 288 291 292 293 292 291 289 285 280 275 271 269
243 242 244 247 249 251 253 255 258 263 266 268 267 266 265 264 264 264 265 268 272 276 281 286 290 292 293 294 294 292 291 293 294 296 298 300 303 304 304 305 305 304 303 304 305 306 307 310 314 318 319 313 306 300 296 293 292 291 292 295 295 295 296 295 294 293 292 292 291 291 293 295 294 293 294 294 294 295 294 292 291 291 289 286 281
245 245 247 250 251 252 253 255 260 263 266 267 267 266 265 264 264 264 267 270 274 278 282 286 289 290 291 292 292 290 289 291 293 295 297 300 302 304 304 303 302 302 302 302 304 306 310 313 315 312 307 302 299 298 297 297 298 299 299 300 300 299 298 296 295 295 295 295 295 296 298 300 300 300 300 299 299 298 296 294 295 298 298 297 294
247 248 249 251 251 251 253 256 260 263 265 266 267 266 265 264 264 266 268 271 275 279 283 286 288 289 290 291 289 288 288 290 292 295 297 301 303 304 303 302 302 303 304 305 307 310 311 309 305 303 302 304 305 306 306 307 307 306 306 306 305 303 301 300 301 301 301 301 302 302 303 304 303 303 302 301 300 299 299 299 301 304 304 303 301
249 250 250 250 250 249 252 256 260 262 264 266 267 266 265 265 265 267 269 272 275 279 282 285 287 289 289 288 287 287 289 290 293 295 299 302 303 303 303 303 306 309 310 310 308 305 303 303 306 309 311 311 311 311 311 311 311 311 311 310 309 308 307 308 310 310 308 307 305 304 303 302 301 301 300 300 300 300 301 304 306 306 306 305 303
252 251 251 250 249 249 252 255 258 261 264 266 267 267 266 266 266 268 270 272 276 279 282 285 287 287 287 286 286 287 288 290 293 296 300 302 304 306 308 310 313 316 313 305 300 301 306 312 316 315 314 313 313 313 313 313 314 315 315 314 313 314 314 314 315 315 314 313 310 308 307 305 303 302 300 300 301 300 302 307 306 304 304 303 300
253 253 252 250 249 249 251 253 255 259 263 266 267 268 268 267 267 268 270 273 276 280 282 284 285 285 284 284 285 287 288 291 294 297 300 304 307 310 311 313 317 314 303 296 299 307 314 318 316 315 316 316 318 319 319 321 322 322 321 321 320 322 322 321 321 320 320 321 319 316 315 313 310 307 304 302 302 302 306 308 302 296 295 293 290
254 254 252 249 248 247 248 250 253 256 260 262 265 267 268 268 268 270 272 274 277 280 281 283 283 283 282 282 285 287 288 291 294 297 301 305 307 307 308 311 310 300 293 297 305 311 315 316 317 320 322 322 324 326 328 331 332 331 331 330 328 330 330 328 326 325 324 325 325 324 325 324 321 319 318 313 310 308 308 305 298 292 290 287 285
255 254 252 249 246 246 247 248 251 254 257 260 262 265 266 268 270 272 273 275 277 278 279 281 282 280 280 281 283 285 288 292 296 299 301 304 303 302 302 300 292 288 292 301 308 311 314 318 321 323 324 325 328 332 335 338 338 339 341 340 337 335 334 332 331 329 326 327 329 331 332 329 326 325 322 318 314 311 309 304 298 294 291 288 287
255 254 252 248 245 245 246 248 249 252 255 258 261 264 266 268 270 272 273 274 276 277 278 279 279 279 281 282 284 287 290 293 296 297 297 298 298 297 294 288 286 290 298 303 307 310 314 319 321 322 324 327 331 335 339 341 343 344 347 347 344 341 337 335 333 329 329 332 335 333 329 324 321 319 316 314 314 313 310 305 298 294 291 288 287
254 254 252 247 244 244 246 247 248 251 254 257 260 263 266 268 269 270 272 273 274 275 276 277 278 278 280 281 284 287 289 291 293 293 293 295 296 292 285 286 290 297 301 302 304 310 315 317 318 319 323 328 332 336 338 341 344 346 347 348 348 346 341 337 334 333 336 339 336 329 325 325 324 323 320 318 315 309 303 300 298 297 294 291 289
256 253 250 246 243 244 246 247 248 251 254 258 261 263 266 268 268 269 270 271 274 275 275 275 275 276 278 279 282 284 286 288 290 289 290 293 289 281 281 290 296 298 296 298 303 309 311 311 313 317 323 328 331 334 336 340 343 346 346 346 347 347 344 342 342 343 345 340 331 327 330 334 335 332 328 325 319 310 306 306 308 307 302 296 293
258 253 249 245 243 244 247 248 250 253 255 258 262 264 266 268 268 268 267 268 269 272 273 274 275 275 277 279 281 282 284 285 284 284 287 285 278 276 286 295 296 292 293 297 302 306 307 308 312 316 322 327 330 331 335 339 342 344 346 345 345 345 345 347 349 350 348 341 335 336 340 341 339 335 332 329 325 320 318 318 316 313 308 302 299
257 252 248 244 242 244 248 250 252 255 258 260 263 265 266 267 268 268 268 266 264 264 266 269 272 273 275 277 279 280 281 281 280 282 281 274 272 280 290 292 288 287 291 295 298 300 302 305 310 316 320 324 327 329 333 337 340 342 344 344 345 345 345 348 352 350 347 343 341 342 343 341 339 338 334 331 328 325 323 323 322 318 311 303 299
255 250 247 244 244 246 250 252 255 258 260 262 264 264 265 266 267 267 267 267 266 264 263 263 266 269 272 275 276 276 276 275 276 275 271 269 275 284 288 283 281 284 286 289 292 295 298 302 308 313 317 320 323 325 329 333 337 339 341 342 344 345 345 347 349 347 345 345 342 339 337 336 338 339 336 332 331 329 326 325 324 321 314 305 300
251 248 245 244 246 248 251 254 257 259 261 262 263 264 265 266 266 266 266 267 267 267 266 265 265 267 270 273 274 274 272 272 272 269 267 271 278 282 278 276 278 279 282 286 290 291 294 300 305 308 312 316 319 323 327 330 333 337 339 340 341 343 344 346 346 344 345 346 343 338 334 334 336 339 337 334 332 332 330 328 325 322 319 314 308
247 245 244 245 247 250 253 256 258 260 262 263 263 264 264 264 264 265 265 266 267 267 268 268 268 269 269 268 269 270 270 269 267 266 268 273 275 273 272 273 274 276 279 284 287 290 293 298 301 304 309 312 316 320 324 327 331 334 336 337 339 341 343 344 345 345 345 345 344 344 340 336 337 338 337 334 333 333 331 330 328 324 323 321 318
245 244 246 248 251 254 256 259 261 261 262 263 263 264 264 263 263 264 265 266 267 267 268 269 270 270 269 264 263 266 267 264 261 262 266 269 268 265 266 269 270 273 278 281 284 288 291 294 297 302 306 310 314 317 320 323 327 330 332 334 336 338 341 342 344 344 344 342 343 345 344 340 339 340 339 336 335 334 332 331 330 329 327 325 322
248 249 251 253 256 259 260 262 262 263 263 264 264 263 263 263 263 265 265 265 266 266 267 268 269 270 267 263 261 263 263 260 256 257 260 260 259 258 260 263 267 271 275 279 282 285 288 290 295 300 304 307 310 312 315 319 322 325 328 330 332 335 338 340 341 341 341 340 340 342 344 344 343 342 340 337 336 335 333 332 332 332 330 327 325
254 256 259 260 262 264 264 264 264 264 264 263 263 262 263 264 264 265 265 265 266 266 267 268 268 267 264 261 261 261 261 258 255 254 255 254 252 253 257 262 267 271 274 277 280 283 285 288 293 297 301 305 307 308 311 315 317 320 323 326 328 330 332 335 336 337 338 338 337 338 341 344 343 341 340 339 337 336 335 334 334 334 333 331 330
262 264 265 265 265 266 266 266 266 265 264 263 263 264 265 266 266 266 266 266 266 267 268 268 267 263 258 258 258 258 258 258 257 255 254 253 253 254 258 263 267 272 275 277 280 283 285 288 292 296 300 302 303 305 307 311 314 317 319 321 323 325 327 330 332 333 334 335 335 333 337 342 342 339 339 340 338 337 336 334 335 336 335 334 334
268 268 268 267 267 268 268 268 268 268 267 267 267 267 267 267 266 266 266 266 266 267 267 266 264 258 254 254 255 255 257 259 259 257 255 255 257 258 260 264 269 273 275 278 281 284 287 289 292 295 297 299 301 303 305 308 310 313 315 316 318 321 323 325 327 328 330 331 330 330 333 339 339 338 338 340 339 337 335 334 335 336 336 336 336
270 270 270 270 269 269 269 270 270 270 270 270 268 267 267 266 266 266 266 266 266 266 265 263 261 256 251 251 252 254 256 257 257 256 256 257 259 261 263 266 270 272 275 279 282 284 287 290 292 294 296 297 298 300 302 305 307 309 311 313 314 316 319 321 322 324 325 327 326 326 330 336 338 337 337 338 338 336 335 335 335 335 336 337 338
275 275 275 275 274 274 273 273 272 272 271 271 270 269 268 267 267 267 267 266 265 264 262 261 259 255 252 250 251 253 254 254 253 254 256 257 259 262 265 267 270 272 275 278 281 283 287 289 292 294 295 295 296 298 299 301 304 305 306 308 309 311 313 316 317 318 321 322 322 323 327 334 336 335 335 336 337 336 336 335 334 334 335 336 336
282 283 283 282 280 279 278 276 275 274 273 272 272 270 269 269 268 267 266 265 264 262 261 259 257 255 253 252 251 251 251 251 251 252 254 256 259 262 264 267 269 272 275 277 280 283 286 289 291 293 294 295 295 296 297 298 300 301 302 303 304 306 308 310 311 314 317 318 317 320 326 331 333 333 334 335 335 336 336 336 336 336 335 334 334
290 291 290 289 288 287 285 283 281 279 276 275 273 272 270 269 267 265 264 262 261 261 260 258 256 255 254 253 252 250 249 249 249 251 253 255 258 261 264 267 269 272 274 277 280 283 285 288 290 292 293 294 295 296 296 297 298 299 300 300 301 303 305 306 307 310 313 312 312 318 326 328 328 329 332 333 334 335 337 338 340 340 338 336 334
297 298 299 299 298 296 294 291 287 284 282 279 277 274 272 270 268 266 264 263 262 261 260 258 257 256 255 253 252 250 250 250 250 252 254 256 258 261 264 267 270 272 274 277 280 283 285 287 289 291 292 293 295 295 295 296 297 298 299 299 300 301 302 303 304 307 308 308 310 318 323 322 323 327 329 330 332 334 336 337 341 343 342 340 338
306 308 309 310 308 306 302 298 294 291 289 286 283 281 278 276 273 270 268 266 264 263 262 261 259 258 257 255 253 252 252 253 254 255 257 259 260 262 265 268 270 273 276 278 281 283 285 287 289 290 291 292 293 294 295 296 297 298 298 298 299 300 301 301 303 305 305 305 309 316 318 316 319 324 326 327 330 332 333 335 339 341 341 342 342
314 317 318 318 317 315 311 307 303 299 295 291 289 287 284 280 277 274 270 268 266 264 264 263 262 261 260 258 256 255 255 256 257 259 260 262 264 266 268 270 272 275 278 280 281 283 285 287 288 289 290 291 292 293 294 295 296 297 297 297 298 299 300 300 301 302 302 303 307 311 312 311 315 321 323 325 327 329 330 334 337 338 339 342 344
314 317 318 317 316 315 312 309 307 303 298 294 291 288 285 282 279 275 272 270 268 266 265 264 263 262 262 261 260 260 260 260 262 263 265 266 268 270 271 273 276 278 279 281 283 285 286 286 286 287 287 289 290 292 293 295 297 297 297 298 297 297 298 298 300 301 300 299 302 305 307 308 312 317 320 322 325 327 329 332 335 337 338 340 342